星链-32019 (STARLINK-32019)

导读 | 豆包AI

STARLINK-32019是美国SpaceX公司星链(Starlink)星座中的一颗卫星,于2024年6月27日发射。星链计划旨在通过近地轨道卫星组网,为全球提供高速低延迟的卫星互联网服务。该计划自启动以来持续扩张,目前已部署数千颗卫星,覆盖全球多个国家和地区,推动了全球卫星互联网的普及与发展。

基本信息
目录编号:
60147
目录名称:
STARLINK-32019
国际标识:
2024-120N
轨道中心:
EARTH
卫星名称:
星链-32019
卫星全名:
星链-32019 (STARLINK-32019)
卫星状态:
在轨 (已飞行626 天)
发射日期:
2024-06-27 UTC
国别 :
美国 (US)
星等 :
--
轨道信息
数据来源 国际轨道数据 AOE轨道数据
星历时间 2026-03-15T05:02:59+0800
21小时前
查看轨道信息
2026-03-15T04:00:00+0800
22小时前
查看轨道信息
半长轴 6853.384km 6853.338km
偏心率 0.0001597 0.0001182
轨道倾角 53.161° 53.163°
近地点辐角 82.436° 66.960°
升交点赤经 295.597° 295.804°
平近点角 277.682° 52.102°
近地点 474.152km 474.39km
远地点 476.342km 476.012km
周期 94.106分钟 94.105分钟
每日圈数 15.301894 15.30205
详细信息
固有亮度:
5
最大亮度:
2.5
卫星平台:
Starlink V1.0
覆盖范围:
全球
运营商:
太空探索技术公司
运营商所在国:
美国
制造商(研发单位):
太空探索技术公司
制造商所在国:
美国
使用方式:
暂无
卫星简介
Starlink 计划是 SpaceX 推出的全球卫星互联网项目,通过发射低轨道卫星,为全球尤其是偏远地区提供高速、低延迟的互联网服务。自 2019 年起,Starlink 已部署数千颗卫星,旨在缩小全球数字鸿沟,推动互联网普及。该项目还为军事、航空等行业提供通信支持,带来广泛经济效益。
2D轨道图
3D轨道图
轨道高度分析图
轨道倾角分析图
轨道综合分析图
查看轨道综合分析图